Time,TemperatureF,DewpointF,PressureIn,WindDirection,WindDirectionDegrees,WindSpeedMPH,WindSpeedGustMPH,Humidity,HourlyPrecipIn,Conditions,Clouds,dailyrainin,SolarRadiationWatts/m^2,SoftwareType,DateUTC
2013-12-13 00:12:00,28.0,26.0,-100.00,North,-999,0.0,0.0,91,0.00,,,0.00,0.000000,,2013-12-13 05:12:00,
2013-12-13 00:22:00,28.0,26.0,-100.00,North,-999,0.0,0.0,91,0.00,,,0.00,0.000000,,2013-12-13 05:22:00,
2013-12-13 00:33:00,28.0,26.0,-100.00,North,-999,0.0,0.0,91,0.00,,,0.00,0.000000,,2013-12-13 05:33:00,
2013-12-13 00:40:00,27.0,25.0,-100.00,North,-999,0.0,2.0,92,0.00,,,0.00,0.000000,,2013-12-13 05:40:00,
2013-12-13 01:12:00,27.0,25.0,-100.00,North,-999,0.0,2.0,92,0.00,,,0.00,0.000000,,2013-12-13 06:12:00,
2013-12-13 01:22:00,27.0,25.0,-100.00,North,-999,0.0,2.0,92,0.00,,,0.00,0.000000,,2013-12-13 06:22:00,
2013-12-13 01:32:00,27.0,25.0,-100.00,North,-999,0.0,2.0,92,0.00,,,0.00,0.000000,,2013-12-13 06:32:00,
2013-12-13 01:40:00,26.0,24.0,-100.00,North,-999,0.0,2.0,91,0.00,,,0.00,0.000000,,2013-12-13 06:40:00,
2013-12-13 02:12:00,26.0,24.0,-100.00,North,-999,0.0,2.0,91,0.00,,,0.00,0.000000,,2013-12-13 07:12:00,
2013-12-13 02:22:00,26.0,24.0,-100.00,North,-999,0.0,2.0,91,0.00,,,0.00,0.000000,,2013-12-13 07:22:00,
2013-12-13 02:32:00,26.0,24.0,-100.00,North,-999,0.0,2.0,91,0.00,,,0.00,0.000000,,2013-12-13 07:32:00,
2013-12-13 02:40:00,26.0,23.0,-100.00,North,-999,0.0,0.0,90,0.00,,,0.00,0.000000,,2013-12-13 07:40:00,
2013-12-13 03:12:00,26.0,23.0,-100.00,North,-999,0.0,0.0,90,0.00,,,0.00,0.000000,,2013-12-13 08:12:00,
2013-12-13 03:22:00,26.0,23.0,-100.00,North,-999,0.0,0.0,90,0.00,,,0.00,0.000000,,2013-12-13 08:22:00,
2013-12-13 03:32:00,26.0,23.0,-100.00,North,-999,0.0,0.0,90,0.00,,,0.00,0.000000,,2013-12-13 08:32:00,
2013-12-13 03:40:00,26.0,24.0,-100.00,North,-999,0.0,1.0,92,0.00,,,0.00,0.000000,,2013-12-13 08:40:00,
2013-12-13 04:12:00,26.0,24.0,-100.00,North,-999,0.0,1.0,92,0.00,,,0.00,0.000000,,2013-12-13 09:12:00,
2013-12-13 04:22:00,26.0,24.0,-100.00,North,-999,0.0,1.0,92,0.00,,,0.00,0.000000,,2013-12-13 09:22:00,
2013-12-13 04:33:00,26.0,24.0,-100.00,North,-999,0.0,1.0,92,0.00,,,0.00,0.000000,,2013-12-13 09:33:00,
2013-12-13 04:40:00,25.0,24.0,-100.00,North,-999,0.0,0.0,94,0.00,,,0.00,0.000000,,2013-12-13 09:40:00,
2013-12-13 05:12:00,25.0,24.0,-100.00,North,-999,0.0,0.0,94,0.00,,,0.00,0.000000,,2013-12-13 10:12:00,
2013-12-13 05:23:00,25.0,24.0,-100.00,North,-999,0.0,0.0,94,0.00,,,0.00,0.000000,,2013-12-13 10:23:00,
2013-12-13 05:34:00,25.0,24.0,-100.00,North,-999,0.0,0.0,94,0.00,,,0.00,0.000000,,2013-12-13 10:34:00,
2013-12-13 05:40:00,25.0,23.0,-100.00,North,-999,0.0,0.0,93,0.00,,,0.00,0.000000,,2013-12-13 10:40:00,
2013-12-13 06:12:00,25.0,23.0,-100.00,North,-999,0.0,0.0,93,0.00,,,0.00,0.000000,,2013-12-13 11:12:00,
2013-12-13 06:22:00,25.0,23.0,-100.00,North,-999,0.0,0.0,93,0.00,,,0.00,0.000000,,2013-12-13 11:22:00,
2013-12-13 06:33:00,25.0,23.0,-100.00,North,-999,0.0,0.0,93,0.00,,,0.00,0.000000,,2013-12-13 11:33:00,
2013-12-13 06:40:00,24.0,22.0,-100.00,North,-999,0.0,1.0,93,0.00,,,0.00,0.000000,,2013-12-13 11:40:00,
2013-12-13 07:12:00,24.0,22.0,-100.00,North,-999,0.0,1.0,93,0.00,,,0.00,0.000000,,2013-12-13 12:12:00,
2013-12-13 07:32:00,24.0,22.0,-100.00,North,-999,0.0,1.0,93,0.00,,,0.00,0.000000,,2013-12-13 12:32:00,
2013-12-13 07:40:00,25.0,23.0,-100.00,North,-999,0.0,0.0,92,0.00,,,0.00,6.000000,,2013-12-13 12:40:00,
2013-12-13 08:12:00,25.0,23.0,-100.00,North,-999,0.0,0.0,92,0.00,,,0.00,6.000000,,2013-12-13 13:12:00,
2013-12-13 08:22:00,25.0,23.0,-100.00,North,-999,0.0,0.0,92,0.00,,,0.00,6.000000,,2013-12-13 13:22:00,
2013-12-13 08:32:00,25.0,23.0,-100.00,North,-999,0.0,0.0,92,0.00,,,0.00,6.000000,,2013-12-13 13:32:00,
2013-12-13 08:40:00,35.0,28.0,-100.00,North,-999,0.0,1.0,76,0.00,,,0.00,118.000000,,2013-12-13 13:40:00,
2013-12-13 09:40:00,42.0,26.0,-100.00,SE,125,1.0,3.0,53,0.00,,,0.00,300.000000,,2013-12-13 14:40:00,
2013-12-13 10:40:00,48.0,24.0,-100.00,South,184,3.0,6.0,38,0.00,,,0.00,441.000000,,2013-12-13 15:40:00,
2013-12-13 11:23:00,48.0,24.0,-100.00,South,184,3.0,6.0,38,0.00,,,0.00,441.000000,,2013-12-13 16:23:00,
2013-12-13 11:33:00,48.0,24.0,-100.00,South,184,3.0,6.0,38,0.00,,,0.00,441.000000,,2013-12-13 16:33:00,
2013-12-13 11:40:00,51.0,19.0,-100.00,WSW,237,6.0,10.0,28,0.00,,,0.00,538.000000,,2013-12-13 16:40:00,
2013-12-13 12:12:00,51.0,19.0,-100.00,WSW,237,6.0,10.0,28,0.00,,,0.00,538.000000,,2013-12-13 17:12:00,
2013-12-13 12:22:00,51.0,19.0,-100.00,WSW,237,6.0,10.0,28,0.00,,,0.00,538.000000,,2013-12-13 17:22:00,
2013-12-13 12:33:00,51.0,19.0,-100.00,WSW,237,6.0,10.0,28,0.00,,,0.00,538.000000,,2013-12-13 17:33:00,
2013-12-13 12:40:00,53.0,19.0,-100.00,SW,220,7.0,12.0,26,0.00,,,0.00,571.000000,,2013-12-13 17:40:00,
2013-12-13 13:12:00,53.0,19.0,-100.00,SW,220,7.0,12.0,26,0.00,,,0.00,571.000000,,2013-12-13 18:12:00,
2013-12-13 13:22:00,53.0,19.0,-100.00,SW,220,7.0,12.0,26,0.00,,,0.00,571.000000,,2013-12-13 18:22:00,
2013-12-13 13:33:00,53.0,19.0,-100.00,SW,220,7.0,12.0,26,0.00,,,0.00,571.000000,,2013-12-13 18:33:00,
2013-12-13 13:40:00,54.0,19.0,-100.00,SW,227,7.0,12.0,25,0.00,,,0.00,522.000000,,2013-12-13 18:40:00,
2013-12-13 14:12:00,54.0,19.0,-100.00,SW,227,7.0,12.0,25,0.00,,,0.00,522.000000,,2013-12-13 19:12:00,
2013-12-13 14:22:00,54.0,19.0,-100.00,SW,227,7.0,12.0,25,0.00,,,0.00,522.000000,,2013-12-13 19:22:00,
2013-12-13 14:32:00,54.0,19.0,-100.00,SW,227,7.0,12.0,25,0.00,,,0.00,522.000000,,2013-12-13 19:32:00,
2013-12-13 14:40:00,55.0,20.0,-100.00,SW,234,5.0,13.0,25,0.00,,,0.00,419.000000,,2013-12-13 19:40:00,
2013-12-13 15:12:00,55.0,20.0,-100.00,SW,234,5.0,13.0,25,0.00,,,0.00,419.000000,,2013-12-13 20:12:00,
2013-12-13 15:22:00,55.0,20.0,-100.00,SW,234,5.0,13.0,25,0.00,,,0.00,419.000000,,2013-12-13 20:22:00,
2013-12-13 15:32:00,55.0,20.0,-100.00,SW,234,5.0,13.0,25,0.00,,,0.00,419.000000,,2013-12-13 20:32:00,
2013-12-13 15:40:00,55.0,19.0,-100.00,WSW,252,5.0,11.0,24,0.00,,,0.00,328.000000,,2013-12-13 20:40:00,
2013-12-13 16:11:00,55.0,19.0,-100.00,WSW,252,5.0,11.0,24,0.00,,,0.00,328.000000,,2013-12-13 21:11:00,
2013-12-13 16:22:00,55.0,19.0,-100.00,WSW,252,5.0,11.0,24,0.00,,,0.00,328.000000,,2013-12-13 21:22:00,
2013-12-13 16:33:00,55.0,19.0,-100.00,WSW,252,5.0,11.0,24,0.00,,,0.00,328.000000,,2013-12-13 21:33:00,
2013-12-13 16:40:00,53.0,20.0,-100.00,SW,233,4.0,11.0,27,0.00,,,0.00,151.000000,,2013-12-13 21:40:00,
2013-12-13 17:13:00,53.0,20.0,-100.00,SW,233,4.0,11.0,27,0.00,,,0.00,151.000000,,2013-12-13 22:13:00,
2013-12-13 17:23:00,53.0,20.0,-100.00,SW,233,4.0,11.0,27,0.00,,,0.00,151.000000,,2013-12-13 22:23:00,
2013-12-13 17:33:00,53.0,20.0,-100.00,SW,233,4.0,11.0,27,0.00,,,0.00,151.000000,,2013-12-13 22:33:00,
2013-12-13 17:40:00,45.0,30.0,-100.00,North,-999,0.0,5.0,55,0.00,,,0.00,13.000000,,2013-12-13 22:40:00,
2013-12-13 18:12:00,45.0,30.0,-100.00,North,-999,0.0,5.0,55,0.00,,,0.00,13.000000,,2013-12-13 23:12:00,
2013-12-13 18:22:00,45.0,30.0,-100.00,North,-999,0.0,5.0,55,0.00,,,0.00,13.000000,,2013-12-13 23:22:00,
2013-12-13 18:33:00,45.0,30.0,-100.00,North,-999,0.0,5.0,55,0.00,,,0.00,13.000000,,2013-12-13 23:33:00,
2013-12-13 18:40:00,42.0,30.0,-100.00,SSE,160,1.0,3.0,63,0.00,,,0.00,0.000000,,2013-12-13 23:40:00,
2013-12-13 19:11:00,42.0,30.0,-100.00,SSE,160,1.0,3.0,63,0.00,,,0.00,0.000000,,2013-12-14 00:11:00,
2013-12-13 19:22:00,42.0,30.0,-100.00,SSE,160,1.0,3.0,63,0.00,,,0.00,0.000000,,2013-12-14 00:22:00,
2013-12-13 19:32:00,42.0,30.0,-100.00,SSE,160,1.0,3.0,63,0.00,,,0.00,0.000000,,2013-12-14 00:32:00,
2013-12-13 19:40:00,44.0,25.0,-100.00,South,175,4.0,6.0,47,0.00,,,0.00,0.000000,,2013-12-14 00:40:00,
2013-12-13 20:11:00,44.0,25.0,-100.00,South,175,4.0,6.0,47,0.00,,,0.00,0.000000,,2013-12-14 01:11:00,
2013-12-13 20:22:00,44.0,25.0,-100.00,South,175,4.0,6.0,47,0.00,,,0.00,0.000000,,2013-12-14 01:22:00,
2013-12-13 20:32:00,44.0,25.0,-100.00,South,175,4.0,6.0,47,0.00,,,0.00,0.000000,,2013-12-14 01:32:00,
2013-12-13 20:40:00,42.0,27.0,-100.00,SSE,166,2.0,6.0,54,0.00,,,0.00,0.000000,,2013-12-14 01:40:00,
2013-12-13 21:12:00,42.0,27.0,-100.00,SSE,166,2.0,6.0,54,0.00,,,0.00,0.000000,,2013-12-14 02:12:00,
2013-12-13 21:22:00,42.0,27.0,-100.00,SSE,166,2.0,6.0,54,0.00,,,0.00,0.000000,,2013-12-14 02:22:00,
2013-12-13 21:32:00,42.0,27.0,-100.00,SSE,166,2.0,6.0,54,0.00,,,0.00,0.000000,,2013-12-14 02:32:00,
2013-12-13 21:40:00,41.0,30.0,-100.00,North,-999,0.0,4.0,65,0.00,,,0.00,0.000000,,2013-12-14 02:40:00,
2013-12-13 22:12:00,41.0,30.0,-100.00,North,-999,0.0,4.0,65,0.00,,,0.00,0.000000,,2013-12-14 03:12:00,
2013-12-13 22:22:00,41.0,30.0,-100.00,North,-999,0.0,4.0,65,0.00,,,0.00,0.000000,,2013-12-14 03:22:00,
2013-12-13 22:34:00,41.0,30.0,-100.00,North,-999,0.0,4.0,65,0.00,,,0.00,0.000000,,2013-12-14 03:34:00,
2013-12-13 22:40:00,40.0,31.0,-100.00,North,-999,0.0,2.0,70,0.00,,,0.00,0.000000,,2013-12-14 03:40:00,
2013-12-13 23:13:00,40.0,31.0,-100.00,North,-999,0.0,2.0,70,0.00,,,0.00,0.000000,,2013-12-14 04:13:00,
2013-12-13 23:23:00,40.0,31.0,-100.00,North,-999,0.0,2.0,70,0.00,,,0.00,0.000000,,2013-12-14 04:23:00,
2013-12-13 23:33:00,40.0,31.0,-100.00,North,-999,0.0,2.0,70,0.00,,,0.00,0.000000,,2013-12-14 04:33:00,
2013-12-13 23:40:00,40.0,32.0,-100.00,SSE,155,2.0,3.0,72,0.00,,,0.00,0.000000,,2013-12-14 04:40:00,